User: anonymous   Login
Location: Huntington Beach
(33.6600°N, 117.9980°W)
Time: 02:17:03
(UTC-08:00)
Language:

SL-16 R/B - Orbit

View from above orbital plane
View from above orbital plane
View from above satellite
View from above satellite

Ground track
Ground track

The orbit data is extracted from the following two-line orbital elements,

1 28353U 04021B   16338.57200304 -.00000293  00000-0 -12877-3 0  9994
2 28353  71.0001 128.6993 0003611 165.9975 194.1248 14.14189195644504
Epoch (UTC): 03 December 2016 13:43:41
Eccentricity: 0.0003611
inclination: 71.0001°
perigee height: 842 km
apogee height: 847 km
right ascension of ascending node: 128.6993°
argument of perigee: 165.9975°
revolutions per day: 14.14189195
mean anomaly at epoch: 194.1248°
orbit number at epoch: 64450

The dashed part of the orbit path shows where the satellite is in the earth's shadow,  

DLR